www.pogodaiklimat.ru

Погода и климат >> Архив погоды >> Колумбия >> Santa Marta


ПОГОДА в Santa Marta

  • Прогноз погоды в Santa Marta
  • Монитор погоды в Santa Marta
  • Климат города

АРХИВ ПОГОДЫ в Santa Marta

Время (UTC), дата Ветер
(напр.,м/с)
 
Видим.   Явления Облачность Т
(С)
Тd
(С)
f
(%)
Тe
(С)
Тes
(С)
Комфортность P
(гПа)
Po
(гПа)
Тmin
(С)
Tmax
(С)
R
(мм)
R24
(мм)
S
(см)
15 11.08 З 3 10 км мгла 4/1 600 м
[Cu Sc Ci fib]
+30.8 +24.7 70 +44 +56 опасность
перегрева
1012.5 1012.0
18 11.08 С 3 10 км мгла 3/3 600 м
[Cu Sc]
+32.4 +26.0 69 +48 +60 опасность
перегрева
1010.9 1010.4
21 11.08 СЗ 5 10 км мгла 4/3 600 м
[Cb calv Ac trans]
+33.8 +25.0 60 +47 +49 опасность
перегрева
1008.8 1008.3
00 12.08 СВ 6 10 км мгла 4/1 600 м
[Cu Sc Ac trans Ci fib]
+32.6 +21.4 52 +41 +41 опасность
перегрева
1009.0 1008.5 +36.2
03 12.08 СВ 3 10 км мгла 3/1 600 м
[Cu hum Ci fib]
+30.3 +22.6 63 +40 +40 очень
душно
1010.5 1010.0
12 12.08 штиль 0 10 км мгла 1/1 600 м
[Sc]
+27.0 +22.8 78 +36 +38 очень
душно
1011.5 1011.0 +26.2
15 12.08 ЮЗ 4 10 км мгла 1/1 600 м
[Cu hum Ci fib]
+30.4 +25.9 77 +45 +56 опасность
перегрева
1012.3 1011.8
18 12.08 З 2 10 км мгла 4/1 600 м
[Cu Sc Ci fib]
+31.0 +24.4 68 +43 +61 опасность
перегрева
1010.8 1010.3
21 12.08 СЗ 5 10 км мгла 4/3 600 м
[Cu med, cong Ci fib]
+32.8 +25.3 65 +47 +49 опасность
перегрева
1009.3 1008.8
00 13.08 С 6 10 км мгла 4/3 600 м
[Cu Sc Ci sp]
+31.3 +22.9 61 +41 +41 опасность
перегрева
1008.1 1007.6 +34.6
12 13.08 штиль 0 10 км мгла 4/1 600 м
[Cu Sc Ci fib]
+27.2 +24.1 83 +38 +40 очень
душно
1010.1 1009.6 +26.0
15 13.08 З 3 10 км мгла 4/1 600 м
[Cu Sc Ci fib]
+31.4 +26.0 73 +47 +59 опасность
перегрева
1011.8 1011.1
18 13.08 СЗ 3 10 км мгла 3/1 600 м
[Cu Sc Ci fib]
+34.6 +24.7 57 +48 +63 опасность
перегрева
1010.0 1009.5
21 13.08 С 3 10 км мгла {гроза} 6/3 600 м
[Cu Sc Ci sp]
+34.3 +20.4 44 +41 +44 опасность
перегрева
1006.8 1006.3
00 14.08 СВ 7 10 км мгла 4/1 600 м
[Cu hum Ac trans Ci fib]
+30.7 +21.6 58 +39 +39 очень
душно
1007.3 1006.8 +36.6
03 14.08 СВ 3 10 км мгла 4/1 600 м
[Cu hum Ci fib]
+28.6 +20.5 62 +35 +35 очень
душно
1008.3 1007.8
12 14.08 штиль 0 9000 м мгла 8/6 450 м
[Cu Sc Ci fib]
+27.2 +24.5 85 +38 +39 очень
душно
1010.3 1009.8 +26.4
21 14.08 С 4 10 км мгла 9/3 600 м
[Cu Sc As op Ci sp]
+28.3 +22.8 72 +38 +39 очень
душно
1009.4 1008.9
12 15.08 Ю 3 8000 м морось 10/4 600 м
[Cu Sc Ac As]
+23.7 +21.6 88 +30 +31 очень
душно
1013.8 1013.3 +23.6 18
15 15.08 штиль 0 10 км мгла {морось} 10/4 600 м
[Cu Sc Ac As]
+24.4 +21.4 83 +31 +35 очень
душно
1014.0 1013.5
21 15.08 В 2 10 км мгла 9/1 600 м
[Cu Sc Ac As Ci fib]
+30.5 +22.8 64 +40 +43 очень
душно
1009.4 1008.9
00 16.08 штиль 0 10 км мгла 8/1 600 м
[Cu hum Ac trans Ci sp]
+28.4 +24.3 78 +40 +40 очень
душно
1010.3 1009.8 +31.4
03 16.08 штиль 0 10 км мгла 6/1 600 м
[Cu hum Ci sp]
+26.8 +22.6 78 +35 +35 очень
душно
1011.5 1011.0
15 16.08 штиль 0 10 км мгла 1/1 600 м
[Cu hum Ci fib]
+29.7 +22.3 65 +39 +60 опасность
солнечного
удара
1013.5 1013.0
18 16.08 СЗ 2 10 км мгла 1/1 600 м
[Cu Sc Ci fib]
+28.4 +22.6 71 +38 +56 опасность
солнечного
удара
1012.8 1012.3
21 16.08 З 2 10 км мгла 3/3 600 м
[Cu med, cong Ci fib]
+31.8 +23.9 63 +43 +47 опасность
перегрева
1010.1 1009.6
00 17.08 Ю 2 10 км мгла 3/1 600 м
[Cu Sc Ci fib]
+29.6 +20.2 57 +36 +36 очень
душно
1010.8 1010.3 +32.2
03 17.08 СВ 5 10 км мгла 3/1 600 м
[Cu Sc Ci fib]
+28.5 +21.3 65 +36 +36 очень
душно
1012.5 1012.0
12 17.08 В 6 10 км мгла 4/1 600 м
[Cu Sc Ci fib]
+26.2 +22.0 78 +34 +35 очень
душно
1012.6 1012.1 +24.0
15 17.08 СЗ 3 10 км мгла 3/1 600 м
[Cu Sc Ci fib]
+28.6 +22.8 71 +38 +50 очень
душно
1013.3 1012.8
18 17.08 СЗ 2 10 км мгла 3/1 600 м
[Cu Sc Ci fib]
+30.1 +22.5 64 +39 +57 опасность
солнечного
удара
1012.5 1012.0

 

Местоположение метеостанции Santa Marta (Колумбия): широта 11.13 долгота -74.23 высота над уровнем моря 14 м.

В архиве по умолчанию представлена погода в Santa Marta за последнюю неделю. Архивные данные за месяц целиком и за предыдущие месяцы, начиная с января 2011 года, Вы можете получить, выбрав интересующий диапазон дат из раскрывающегося списка и нажав кнопку "Ввод!".


*Определитесь, кто Вы:
робот инопланетянин человек

Внимание! Время в таблицах - всемирное. Для получения местного времени необходимо прибавить поправку, которая в Santa Marta равна -5 ч.

Смотрите также архив погоды в соседних городах и на ближайших метеорологических станциях:

Погода в Barranquilla (Колумбия) (66 км)
Погода в Valledupar (Колумбия) (132 км)
Погода в Riohacha (Колумбия) (149 км)
Погода в Cartagena (Колумбия) (159 км)
Погода в Maracaibo - La Chinit (Венесуэла) (280 км)
Погода в Maracaibo - La Canada (Венесуэла) (290 км)
Погода в Monteria (Колумбия) (312 км)
Погода в Mene Grande (Венесуэла) (389 км)
Погода в El Vigia (Венесуэла) (397 км)
Погода в Cucuta (Колумбия) (403 км)

Пояснения к столбцам:

Ветер - указаны скорость ветра в м/с - средняя за 10 мин, порывы в срок и между сроками (в фигурных скобках) и направление, откуда дует ветер: С - северный, СВ - северо-восточный, В - восточный, ЮВ - юго-восточный, Ю - южный, ЮЗ - юго-западный, З - западный, СЗ - северо-западный.
Видимость - горизонтальная дальность видимости в метрах или километрах. При видимости от 1 до 10 км при отсутствии осадков обычно наблюдается дымка, при ухудшении видимости до 1 км и менее - туман. В сухую погоду видимость может ухудшаться дымом, пылью или мглою.
Явления - указаны атмосферные явления, наблюдавшиеся в срок или в последний час перед сроком; фигурными скобками обозначены явления, наблюдавшиеся между сроками (за 1-3 часа до срока); квадратными скобками обозначены град или гололедные отложения с указанием их диаметра в мм.
Облачность - указаны через наклонную черту общая и нижняя облачность в баллах и высота нижней границы облаков в метрах; квадратными скобками обозначены формы облаков: Ci - перистые, Cs - перисто-слоистые, Cc - перисто-кучевые, Ac - высококучевые, As - высокослоистые, Sc - слоисто-кучевые, Ns - слоисто-дождевые, Cu - кучевые, Cb - кучево-дождевые. Подробнее классификацию облаков см. в Атласе облаков (PDF).
T - Температура воздуха - температура, измеренная на высоте 2 м над землей.
Td - Температура точки росы - температура, при понижении до которой содержащийся в воздухе водяной пар достигнет насыщения.
f - Относительная влажность воздуха - влажноcть воздуха, измеренная на высоте 2 м над землей.
Te - Эффективная температура - температура, которую ощущает одетый по сезону человек в тени. Характеристика душности погоды. При расчете учитывается влияние влажности воздуха и скорости ветра на теплоощущения человека.
Tes - Эффективная температура на солнце - температура, которую ощущает человек, с поправкой на солнечный нагрев. Характеристика знойности погоды. Зависит от высоты солнца над горизонтом, облачности и скорости ветра. Ночью, в пасмурную погоду, а также при ветре 12 м/с и более поправка равна нулю.
P - Атмосферное давление - приведенное к уровню моря атмосферное давление.
Po - Атмосферное давление - измеренное на уровне метеостанции атмосферное давление.
Tmin - Минимальная температура - минимум температуры воздуха на высоте 2 м над землей.
Tmax - Максимальная температура - максимум температуры воздуха на высоте 2 м над землей.
R - Количество осадков - Количество выпавших осадков за период времени, мм. При наведении курсора мыши на число - период времени, за который выпало указанное количество осадков.
R24 - Количество осадков - Количество выпавших осадков за 24 часа, мм.
S - Снежный покров - Высота снежного покрова, см. При наведении курсора мыши на число - состояние снежного покрова и степень покрытия местности в баллах.